Location: La Guiltière
(47.1329°N, 1.2266°W)
Time: 23:23:33
(UTC+00:00)

Daily predictions for brighter satellites

Satellite Brightness Start Highest point End
(mag) Time Altitude Azimuth Time Altitude Azimuth Time Altitude Azimuth
Meteor 2-10 4.5 17:57:12 10° SSE 18:02:32 46° E 18:07:44 10° NNE
ARGOS 4.0 17:58:01 10° S 18:03:17 59° W 18:08:37 10° NNW
YAOGAN 1 3.4 18:02:48 10° SE 18:06:36 31° ENE 18:10:25 10° N
Okean O Rocket 2.5 18:06:44 10° SE 18:10:29 29° ENE 18:14:16 10° N
Cosmos 2084 4.1 18:07:36 10° WSW 18:11:19 49° NW 18:15:03 10° NNE
SKYMED 2 3.5 18:10:07 10° NNE 18:14:28 71° ESE 18:18:48 10° S
Nadezhda 4 Rocket 4.4 18:09:12 10° SSE 18:15:01 41° E 18:20:51 10° NNE
Cosmos 2227 Rocket 4.4 18:11:35 10° NW 18:16:25 30° WSW 18:21:15 10° SSW
Cosmos 2285 Rocket 4.2 18:15:13 10° NNW 18:21:26 52° ENE 18:27:38 10° SE
PSLV R/B 3.5 18:18:59 10° SSE 18:22:38 74° ENE 18:26:18 10° N
Cosmos 1726 2.2 18:19:37 10° S 18:23:09 51° E 18:26:43 10° NNE
Cosmos 2322 Rocket 3.4 18:19:10 10° SSE 18:23:17 21° E 18:27:25 10° NE
USA 186 3.9 18:22:42 11° E 18:23:39 12° ENE 18:24:59 10° NE
Cosmos 1470 4.0 18:25:14 10° SE 18:28:00 19° E 18:30:47 10° NE
Cosmos 841 Rocket 3.8 18:22:59 10° NNW 18:28:09 72° WSW 18:33:15 10° SSE
CZ-4B R/B 3.2 18:23:36 10° SSE 18:28:54 63° ENE 18:34:21 10° N
Cosmos 1980 Rocket 2.4 18:23:19 10° SSW 18:28:56 76° WNW 18:34:36 10° NNE
Cosmos 1378 Rocket 3.5 18:25:13 10° N 18:29:36 72° ENE 18:33:56 10° SSE
Cosmos 1975 Rocket 4.4 18:27:15 10° NNE 18:30:32 20° ENE 18:33:08 13° ESE
Timation 2 Rocket 4.1 18:24:42 10° NNW 18:31:10 83° WSW 18:37:20 10° SSE
ARGOS Delta rocket 4.0 18:26:32 10° NNE 18:31:44 60° E 18:36:38 10° S
DMSP B5D2-2 4.2 18:27:13 10° NNE 18:32:32 82° WNW 18:37:48 10° SSW
Cosmos 2292 Rocket 4.2 18:33:21 10° SSE 18:38:00 35° E 18:41:39 10° NNE
Meteor 2-14 Rocket 4.4 18:33:46 10° S 18:39:49 77° E 18:45:53 10° NNE
Cosmos 1733 Rocket 3.7 18:37:44 10° SSW 18:42:07 60° WNW 18:46:32 10° N
Cosmos 1850 Rocket 4.4 18:37:16 10° SSW 18:42:27 67° WNW 18:47:44 10° NNE
USA 215 3.5 18:38:41 10° NE 18:45:13 72° NNW 18:51:43 10° WSW
COBE Rocket 3.8 18:42:13 10° SSE 18:47:05 88° ENE 18:51:50 10° NNW
Cosmos 2221 Rocket 4.4 18:43:10 10° NNW 18:47:36 56° W 18:52:02 10° S
Cosmos 1844 Rocket 3.4 18:44:16 10° NNW 18:49:29 36° NE 18:52:59 19° ESE
Cosmos 2278 3.7 18:46:39 10° SSW 18:52:20 87° WNW 18:58:04 10° NNE
SL-16 R/B 2.4 18:47:47 10° S 18:53:12 48° ESE 18:58:38 10° NE
Cosmos 1570 Rocket 3.9 18:49:48 10° NNW 18:55:04 71° ENE 19:00:17 10° SSE
Landsat 5 4.4 18:52:18 10° NE 18:56:11 28° E 19:00:01 10° SSE
Cosmos 1092 Rocket 4.2 18:50:30 10° SSE 18:56:29 47° E 19:02:26 10° NNE
Resurs 01 Rocket 3.5 19:01:19 14° NE 19:01:19 14° NE 19:03:15 10° NNE
DMSP B5D1-3 4.4 18:56:36 10° NNE 19:01:42 68° ESE 19:06:48 10° S
COSMO-SKYMED 1 4.2 18:58:23 10° N 19:02:25 38° WNW 19:06:26 10° SW
Meteor 2-21 Rocket 4.3 18:56:28 10° S 19:02:31 81° E 19:08:35 10° NNE
SJ-6B 3.5 19:02:07 28° E 19:02:57 32° ENE 19:06:22 10° N
Cosmos 2278 Rocket 4.3 19:02:12 10° NNE 19:03:42 11° NNE 19:05:12 10° NE
HJ-1C 3.5 19:01:05 10° S 19:04:11 66° W 19:07:17 10° NNW
Cosmos 1437 Rocket 2.5 19:01:45 10° S 19:05:28 73° E 19:09:12 10° NNE
H-2A R/B 4.2 19:07:11 15° NE 19:07:11 15° NE 19:08:39 10° NNE
Cosmos 2263 Rocket 3.4 19:03:19 10° NW 19:08:42 44° WSW 19:14:03 10° S
Meteor 1-24 Rocket 3.5 19:05:23 10° N 19:10:40 64° ENE 19:16:00 10° SSE
Resurs 1-3 4.4 19:11:26 30° E 19:12:08 31° ENE 19:16:01 10° N
SL-4 R/B 2.9 19:10:54 10° WNW 19:15:14 50° SW 19:17:52 23° SSE
Meteor 2-16 Rocket 4.4 19:10:20 10° S 19:16:29 87° E 19:22:40 10° N
Feng Yun 1-1 Rocket 4.2 19:11:22 10° SSE 19:16:51 86° WSW 19:22:18 10° NNW
Cosmos 2084 Rocket 3.1 19:14:50 10° NW 19:18:41 72° NE 19:19:51 43° ESE
USA 267 3.9 19:14:30 10° SSE 19:20:51 51° SW 19:27:14 10° WNW
Okean-O 2.9 19:20:29 36° ESE 19:21:45 47° ENE 19:26:01 10° N
ISS -1.0 19:20:14 10° W 19:22:08 14° SW 19:24:01 10° S
Cosmos 1486 Rocket 4.4 19:17:48 10° S 19:22:44 41° ESE 19:27:43 10° NE
CZ-4 R/B 1.9 19:18:54 10° S 19:23:02 62° W 19:27:11 10° NNW
OBJECT-B 1.9 19:24:56 26° N 19:24:56 26° N 19:26:12 10° N
Cosmos 2208 Rocket 4.1 19:18:20 10° NNW 19:23:45 86° WSW 19:28:15 15° SSE
Cosmos 1844 3.9 19:18:43 10° NNW 19:24:10 52° ENE 19:26:12 35° ESE
IGS 5A 3.5 19:24:38 43° ESE 19:25:37 55° ENE 19:29:40 10° N
DNEPR-1 R/B 4.0 19:22:09 10° SSW 19:26:39 52° ESE 19:30:36 18° NE
Meteor 1-22 Rocket 4.1 19:22:25 10° S 19:27:50 83° E 19:33:30 10° NNE
Cosmos 2333 Rocket4.519:36:34NE19:36:34NE19:24:21SSE
Helios 1B 4.4 19:25:49 10° NNE 19:30:10 85° ESE 19:34:30 10° SSW
Cosmos 1300 Rocket 3.6 19:30:15 48° E 19:30:19 48° E 19:34:32 10° NNE
Cosmos 1908 Rocket 4.4 19:26:18 10° SSW 19:30:31 52° WNW 19:34:47 10° N
CSL-04 Debris 4.0 19:28:02 20° SSE 19:31:53 76° ENE 19:37:17 10° NNW
Cosmos 1428 Rocket 4.4 19:25:51 10° S 19:32:01 84° E 19:38:19 10° N
Cosmos 1627 Rocket 4.3 19:29:24 10° S 19:35:30 81° E 19:41:40 10° N
Cosmos 2195 Rocket 4.5 19:29:32 10° S 19:35:47 88° WNW 19:42:08 10° N
Cosmos 2360 Rocket 2.2 19:32:17 10° S 19:37:43 51° ESE 19:43:10 10° NE
Cosmos 1782 Rocket 3.6 19:34:20 10° SSW 19:38:39 79° W 19:43:04 10° N
USA 81 3.9 19:34:04 10° N 19:39:23 85° E 19:43:22 18° S
Cosmos 1025 Rocket 2.9 19:39:04 10° N 19:43:24 86° W 19:44:51 42° S
Okean O Rocket 3.3 19:42:51 10° SSW 19:46:45 32° W 19:50:43 10° NNW
Cosmos 968 Rocket 4.3 19:43:48 10° SW 19:48:55 53° WNW 19:54:03 10° NNE
Lacrosse 4 Rocket 1.2 19:45:58 10° SSW 19:50:03 89° NW 19:50:18 79° NNE
Cosmos 2026 Rocket 4.0 19:46:01 10° SSW 19:52:04 79° W 19:58:11 10° N
USA 186 2.8 19:55:51 48° WNW 19:55:51 48° WNW 19:58:49 10° NNW
CSL-04 Rocket 3.7 19:55:05 30° S 19:57:50 76° WSW 20:03:17 10° NNW
ATLAS 2AS CENTAUR R/B 4.3 19:52:50 10° NW 19:58:31 23° NNE 20:01:35 18° NE
BREEZE-M R/B 4.4 19:56:53 10° WSW 19:58:03 32° WSW 19:58:03 32° WSW
MOS 1 4.4 20:01:33 52° ENE 20:01:33 52° ENE 20:07:01 10° N
Cosmos 1470 4.4 20:00:12 10° SW 20:03:42 33° WNW 20:07:13 10° N
Cosmos 1553 Rocket 3.9 19:57:46 10° N 20:04:11 84° E 20:06:34 42° SSE
Landsat 7 3.6 20:04:06 82° S 20:04:19 88° WSW 20:09:04 10° NNW
deb Chang Zheng 4 4.4 20:05:56 40° N 20:05:56 40° N 20:08:43 10° N
Cosmos 2322 Rocket 2.5 20:01:05 10° SW 20:06:46 68° WNW 20:12:29 10° NNE
SPOT 1/Viking Rocket 3.9 20:07:54 49° NE 20:07:54 49° NE 20:12:08 10° N
Cosmos 1975 Rocket 4.1 20:04:26 10° NNW 20:08:37 44° W 20:10:19 30° SW
NOSS 3-4 (A) 4.2 20:04:20 10° NW 20:10:53 48° NE 20:12:04 44° ENE
NOSS 3-4 (C) 4.2 20:04:27 10° NW 20:10:59 48° NE 20:12:10 44° ENE
Ariane Rocket 4.2 20:16:25 31° NNE 20:16:25 31° NNE 20:19:31 10° N
NOSS 3-3 (A) 3.7 20:14:50 10° SSW 20:20:02 76° S 20:20:02 76° S
NOSS 3-3 (C) 3.7 20:14:57 10° SSW 20:19:58 72° S 20:19:58 72° S
Aureole 1 Rocket 3.9 20:17:20 10° SSW 20:24:48 81° ESE 20:30:41 10° NNE
USA 281 4.2 20:27:40 30° NE 20:27:40 30° NE 20:32:52 10° N
USA 215 4.2 20:24:15 23° NE 20:27:43 41° N 20:33:43 10° WNW
Cosmos 1844 Rocket 3.6 20:28:08 10° NW 20:33:28 43° WSW 20:34:40 38° SW
Resurs 01 Rocket 3.1 20:38:53 32° NNW 20:38:53 32° NNW 20:41:19 10° NNW
SL-16 R/B 3.8 20:32:26 10° WSW 20:37:30 32° NW 20:42:36 10° NNE
Terra 4.3 20:42:43 13° NNE 20:42:43 13° NNE 20:43:19 10° N
Cosmos 1943 Rocket 4.3 20:36:56 10° N 20:38:59 15° NNE 20:38:59 15° NNE
Cosmos 2278 Rocket 3.5 20:44:07 10° NNW 20:47:32 31° N 20:47:32 31° N
Cosmos 2360 Rocket 3.8 21:17:00 10° WSW 21:21:58 31° NW 21:26:58 10° NNE
ATLAS 2AS CENTAUR R/B 3.9 21:44:18 10° NW 21:49:00 37° N 21:49:00 37° N
